Simultaneous Nadir Overpasses (SNOs) Predictions

Prediction of SNOs between GOES-16 and METOP-C Satellite Orbit:

Table of predicted SNOs for the next 14.0 days since TLE Epoch: 2/25/2023
Index Date Time (GOES-16) GOES-16 Lat,Lon METOP-C Lat,Lon Distance(km) Time Diff (sec)
1 02/27/2023 02:33:00 -0.03, -75.19 -0.05, -75.26 8.01 80
2 03/01/2023 14:28:32 0.03, -75.22 -0.07, -74.83 44.46 80
3 03/03/2023 02:50:12 -0.04, -75.22 -0.95, -79.43 478.96 80
4 03/04/2023 02:26:52 -0.04, -75.23 0.12, -74.42 91.29 80
5 03/05/2023 14:48:23 0.04, -75.26 0.89, -78.98 425.04 80
6 03/06/2023 14:25:04 0.04, -75.27 -0.24, -73.99 145.74 80
7 03/08/2023 02:46:44 -0.04, -75.28 -0.75, -78.59 376.05 80
8 03/09/2023 02:23:24 -0.04, -75.30 0.32, -73.59 195.10 80
9 03/10/2023 14:44:55 0.04, -75.34 0.69, -78.14 320.33 80
